datetime,min air temp
1990-10-02,32.0
1990-10-03,32.0
1990-10-04,32.0
1990-10-05,32.0
1990-10-06,32.0
1990-10-07,32.0
1990-10-08,32.0
1990-10-09,32.0
1990-10-10,32.0
1990-10-11,32.0
1990-10-12,32.0
1990-10-13,32.0
1990-10-14,32.0
1990-10-15,32.0
1990-10-16,
1990-10-17,
1990-10-18,22.46
1990-10-19,17.06
1990-10-20,19.94
1990-10-21,29.48
1990-10-22,30.2
1990-10-23,29.12
1990-10-24,39.38
1990-10-25,39.02
1990-10-26,33.08
1990-10-27,38.48
1990-10-28,28.94
1990-10-29,28.58
1990-10-30,31.82
1990-10-31,22.1
1990-11-01,14.54
1990-11-02,12.56
1990-11-03,20.3
1990-11-04,27.68
1990-11-05,21.02
1990-11-06,13.28
1990-11-07,16.7
1990-11-08,31.1
1990-11-09,30.2
1990-11-10,35.6
1990-11-11,35.78
1990-11-12,37.22
1990-11-13,27.14
1990-11-14,17.06
1990-11-15,17.06
1990-11-16,24.98
1990-11-17,27.86
1990-11-18,22.82
1990-11-19,16.34
1990-11-20,14.72
1990-11-21,22.46
1990-11-22,21.2
1990-11-23,25.34
1990-11-24,33.98
1990-11-25,15.08
1990-11-26,13.46
1990-11-27,14.0
1990-11-28,14.18
1990-11-29,25.34
1990-11-30,13.1
1990-12-01,12.38
1990-12-02,13.82
1990-12-03,21.2
1990-12-04,23.54
1990-12-05,23.54
1990-12-06,19.04
1990-12-07,24.62
1990-12-08,31.28
1990-12-09,32.0
1990-12-10,24.26
1990-12-11,8.42
1990-12-12,9.68
1990-12-13,7.52
1990-12-14,5.18
1990-12-15,15.98
1990-12-16,16.7
1990-12-17,22.82
1990-12-18,9.68
1990-12-19,-15.34
1990-12-20,-23.98
1990-12-21,-25.06
1990-12-22,-13.54
1990-12-23,2.66
1990-12-24,9.14
1990-12-25,11.3
1990-12-26,15.44
1990-12-27,15.8
1990-12-28,3.2
1990-12-29,-12.46
1990-12-30,8.24
1990-12-31,16.88
1991-01-01,23.9
1991-01-02,23.72
1991-01-03,24.98
1991-01-04,24.08
1991-01-05,21.92
1991-01-06,21.02
1991-01-07,19.22
1991-01-08,14.18
1991-01-09,15.8
1991-01-10,24.26
1991-01-11,27.14
1991-01-12,28.76
1991-01-13,29.84
1991-01-14,28.58
1991-01-15,20.84
1991-01-16,16.52
1991-01-17,27.14
1991-01-18,25.88
1991-01-19,14.36
1991-01-20,9.68
1991-01-21,7.7
1991-01-22,24.44
1991-01-23,21.2
1991-01-24,20.12
1991-01-25,19.58
1991-01-26,21.56
1991-01-27,18.32
1991-01-28,10.4
1991-01-29,7.7
1991-01-30,21.92
1991-01-31,28.22
1991-02-01,28.22
1991-02-02,28.22
1991-02-03,28.22
1991-02-04,26.42
1991-02-05,22.82
1991-02-06,20.48
1991-02-07,24.98
1991-02-08,28.22
1991-02-09,22.82
1991-02-10,24.98
1991-02-11,25.52
1991-02-12,22.46
1991-02-13,30.74
1991-02-14,30.74
1991-02-15,31.46
1991-02-16,22.64
1991-02-17,19.76
1991-02-18,19.04
1991-02-19,26.42
1991-02-20,24.08
1991-02-21,30.74
1991-02-22,26.06
1991-02-23,23.54
1991-02-24,21.38
1991-02-25,26.06
1991-02-26,26.24
1991-02-27,27.68
1991-02-28,28.58
1991-03-01,25.16
1991-03-02,23.0
1991-03-03,28.22
1991-03-04,19.58
1991-03-05,12.02
1991-03-06,9.68
1991-03-07,8.24
1991-03-08,11.3
1991-03-09,22.82
1991-03-10,11.12
1991-03-11,8.78
1991-03-12,15.62
1991-03-13,15.44
1991-03-14,16.34
1991-03-15,10.94
1991-03-16,10.22
1991-03-17,16.7
1991-03-18,17.96
1991-03-19,13.28
1991-03-20,12.02
1991-03-21,15.44
1991-03-22,18.68
1991-03-23,21.2
1991-03-24,15.26
1991-03-25,18.32
1991-03-26,12.92
1991-03-27,14.72
1991-03-28,18.14
1991-03-29,17.06
1991-03-30,25.16
1991-03-31,28.22
1991-04-01,27.5
1991-04-02,24.44
1991-04-03,23.18
1991-04-04,30.56
1991-04-05,23.0
1991-04-06,23.0
1991-04-07,13.28
1991-04-08,11.48
1991-04-09,12.02
1991-04-10,7.88
1991-04-11,9.14
1991-04-12,22.46
1991-04-13,23.36
1991-04-14,23.54
1991-04-15,22.28
1991-04-16,19.94
1991-04-17,25.52
1991-04-18,25.52
1991-04-19,24.44
1991-04-20,28.94
1991-04-21,30.02
1991-04-22,30.02
1991-04-23,28.58
1991-04-24,19.4
1991-04-25,16.34
1991-04-26,18.86
1991-04-27,11.48
1991-04-28,19.94
1991-04-29,19.04
1991-04-30,25.7
1991-05-01,30.2
1991-05-02,28.22
1991-05-03,25.52
1991-05-04,25.52
1991-05-05,33.26
1991-05-06,29.66
1991-05-07,28.58
1991-05-08,19.22
1991-05-09,15.8
1991-05-10,22.82
1991-05-11,28.4
1991-05-12,31.82
1991-05-13,30.2
1991-05-14,24.98
1991-05-15,26.06
1991-05-16,30.02
1991-05-17,22.46
1991-05-18,22.46
1991-05-19,26.06
1991-05-20,30.92
1991-05-21,31.1
1991-05-22,33.08
1991-05-23,34.34
1991-05-24,30.92
1991-05-25,22.82
1991-05-26,25.88
1991-05-27,26.96
1991-05-28,28.94
1991-05-29,28.04
1991-05-30,23.18
1991-05-31,25.88
1991-06-01,37.22
1991-06-02,38.66
1991-06-03,32.36
1991-06-04,23.9
1991-06-05,26.06
1991-06-06,25.52
1991-06-07,30.92
1991-06-08,32.72
1991-06-09,39.02
1991-06-10,47.3
1991-06-11,38.66
1991-06-12,28.04
1991-06-13,23.18
1991-06-14,22.82
1991-06-15,32.0
1991-06-16,28.4
1991-06-17,26.6
1991-06-18,34.7
1991-06-19,31.64
1991-06-20,30.92
1991-06-21,30.2
1991-06-22,31.46
1991-06-23,33.08
1991-06-24,34.7
1991-06-25,32.0
1991-06-26,32.9
1991-06-27,35.42
1991-06-28,38.12
1991-06-29,37.58
1991-06-30,33.98
1991-07-01,41.36
1991-07-02,47.66
1991-07-03,53.96
1991-07-04,55.4
1991-07-05,47.3
1991-07-06,45.32
1991-07-07,44.78
1991-07-08,45.68
1991-07-09,42.44
1991-07-10,37.04
1991-07-11,43.88
1991-07-12,48.56
1991-07-13,47.3
1991-07-14,43.7
1991-07-15,41.72
1991-07-16,43.7
1991-07-17,42.62
1991-07-18,38.12
1991-07-19,43.88
1991-07-20,43.7
1991-07-21,44.06
1991-07-22,50.72
1991-07-23,52.34
1991-07-24,45.32
1991-07-25,43.16
1991-07-26,40.1
1991-07-27,46.22
1991-07-28,49.1
1991-07-29,49.46
1991-07-30,46.76
1991-07-31,47.84
1991-08-01,38.12
1991-08-02,44.42
1991-08-03,49.82
1991-08-04,47.66
1991-08-05,46.04
1991-08-06,43.7
1991-08-07,44.06
1991-08-08,44.06
1991-08-09,39.56
1991-08-10,32.18
1991-08-11,40.46
1991-08-12,43.16
1991-08-13,44.24
1991-08-14,43.7
1991-08-15,48.02
1991-08-16,45.86
1991-08-17,48.38
1991-08-18,48.2
1991-08-19,48.02
1991-08-20,49.82
1991-08-21,49.64
1991-08-22,50.18
1991-08-23,47.12
1991-08-24,44.78
1991-08-25,40.28
1991-08-26,41.0
1991-08-27,41.72
1991-08-28,38.66
1991-08-29,40.64
1991-08-30,40.1
1991-08-31,41.72
1991-09-01,38.66
1991-09-02,40.64
1991-09-03,44.96
1991-09-04,50.54
1991-09-05,49.64
1991-09-06,45.5
1991-09-07,40.1
1991-09-08,34.52
1991-09-09,30.92
1991-09-10,43.52
1991-09-11,-11.2
1991-09-12,32.9
1991-09-13,37.76
1991-09-14,30.92
1991-09-15,33.98
1991-09-16,42.98
1991-09-17,38.66
1991-09-18,28.22
1991-09-19,-1.48
1991-09-20,
1991-09-21,
1991-09-22,3.74
1991-09-23,24.8
1991-09-24,5.18
1991-09-25,37.94
1991-09-26,47.12
1991-09-27,
1991-09-28,
1991-09-29,36.5
1991-09-30,
1991-10-01,
1991-10-02,43.7
1991-10-03,43.16
1991-10-04,36.68
1991-10-05,48.2
1991-10-06,45.68
1991-10-07,39.38
1991-10-08,39.92
1991-10-09,39.92
1991-10-10,42.8
1991-10-11,48.38
1991-10-12,43.7
1991-10-13,40.1
1991-10-14,44.96
1991-10-15,46.04
1991-10-16,42.8
1991-10-17,33.44
1991-10-18,38.12
1991-10-19,35.06
1991-10-20,35.24
1991-10-21,35.24
1991-10-22,21.02
1991-10-23,20.12
1991-10-24,19.4
1991-10-25,26.24
1991-10-26,17.06
1991-10-27,14.0
1991-10-28,12.92
1991-10-29,9.86
1991-10-30,7.34
1991-10-31,21.74
1991-11-01,28.22
1991-11-02,28.94
1991-11-03,32.18
1991-11-04,35.24
1991-11-05,35.78
1991-11-06,41.36
1991-11-07,37.04
1991-11-08,35.24
1991-11-09,30.2
1991-11-10,27.68
1991-11-11,34.34
1991-11-12,33.62
1991-11-13,22.82
1991-11-14,19.4
1991-11-15,13.46
1991-11-16,21.92
1991-11-17,23.9
1991-11-18,19.58
1991-11-19,21.38
1991-11-20,23.18
1991-11-21,10.76
1991-11-22,8.96
1991-11-23,26.06
1991-11-24,31.46
1991-11-25,32.72
1991-11-26,26.78
1991-11-27,14.54
1991-11-28,14.0
1991-11-29,8.42
1991-11-30,7.7
1991-12-01,20.48
1991-12-02,24.44
1991-12-03,22.64
1991-12-04,26.78
1991-12-05,28.4
1991-12-06,25.7
1991-12-07,12.56
1991-12-08,12.92
1991-12-09,21.74
1991-12-10,13.64
1991-12-11,18.14
1991-12-12,18.86
1991-12-13,14.54
1991-12-14,25.16
1991-12-15,28.22
1991-12-16,27.68
1991-12-17,27.68
1991-12-18,16.7
1991-12-19,10.22
1991-12-20,9.5
1991-12-21,26.06
1991-12-22,23.54
1991-12-23,24.08
1991-12-24,23.18
1991-12-25,24.08
1991-12-26,28.94
1991-12-27,26.6
1991-12-28,19.94
1991-12-29,19.04
1991-12-30,18.32
1991-12-31,23.54
1992-01-01,23.54
1992-01-02,23.36
1992-01-03,22.82
1992-01-04,21.56
1992-01-05,14.72
1992-01-06,15.08
1992-01-07,11.12
1992-01-08,12.38
1992-01-09,27.68
1992-01-10,19.4
1992-01-11,10.04
1992-01-12,6.98
1992-01-13,21.92
1992-01-14,20.84
1992-01-15,26.42
1992-01-16,25.34
1992-01-17,15.26
1992-01-18,14.18
1992-01-19,24.44
1992-01-20,22.82
1992-01-21,17.78
1992-01-22,19.58
1992-01-23,24.44
1992-01-24,26.6
1992-01-25,19.4
1992-01-26,22.82
1992-01-27,26.6
1992-01-28,25.52
1992-01-29,24.98
1992-01-30,35.78
1992-01-31,31.64
1992-02-01,16.88
1992-02-02,15.26
1992-02-03,21.92
1992-02-04,20.3
1992-02-05,21.56
1992-02-06,23.0
1992-02-07,20.12
1992-02-08,20.48
1992-02-09,26.78
1992-02-10,26.42
1992-02-11,25.52
1992-02-12,24.98
1992-02-13,23.72
1992-02-14,21.38
1992-02-15,16.16
1992-02-16,19.4
1992-02-17,17.06
1992-02-18,20.66
1992-02-19,27.14
1992-02-20,28.04
1992-02-21,28.4
1992-02-22,21.02
1992-02-23,18.68
1992-02-24,31.82
1992-02-25,32.54
1992-02-26,29.66
1992-02-27,32.0
1992-02-28,31.64
1992-02-29,30.38
1992-03-01,26.96
1992-03-02,25.88
1992-03-03,24.98
1992-03-04,24.44
1992-03-05,24.44
1992-03-06,23.36
1992-03-07,25.52
1992-03-08,24.62
1992-03-09,15.62
1992-03-10,25.52
1992-03-11,26.24
1992-03-12,28.94
1992-03-13,30.38
1992-03-14,24.08
1992-03-15,20.66
1992-03-16,22.1
1992-03-17,17.96
1992-03-18,16.34
1992-03-19,19.22
1992-03-20,25.52
1992-03-21,23.54
1992-03-22,25.7
1992-03-23,24.98
1992-03-24,24.62
1992-03-25,29.66
1992-03-26,25.7
1992-03-27,22.82
1992-03-28,25.52
1992-03-29,29.3
1992-03-30,28.94
1992-03-31,31.28
1992-04-01,30.56
1992-04-02,36.68
1992-04-03,29.84
1992-04-04,18.86
1992-04-05,15.62
1992-04-06,13.82
1992-04-07,22.28
1992-04-08,30.2
1992-04-09,31.82
1992-04-10,31.64
1992-04-11,31.46
1992-04-12,31.64
1992-04-13,26.78
1992-04-14,27.32
1992-04-15,29.48
1992-04-16,33.08
1992-04-17,26.96
1992-04-18,22.1
1992-04-19,24.98
1992-04-20,31.82
1992-04-21,24.26
1992-04-22,19.04
1992-04-23,16.34
1992-04-24,30.56
1992-04-25,36.14
1992-04-26,37.04
1992-04-27,32.54
1992-04-28,34.7
1992-04-29,33.62
1992-04-30,25.52
1992-05-01,20.12
1992-05-02,30.74
1992-05-03,38.3
1992-05-04,40.46
1992-05-05,44.78
1992-05-06,46.76
1992-05-07,41.9
1992-05-08,29.3
1992-05-09,24.26
1992-05-10,31.82
1992-05-11,28.76
1992-05-12,28.22
1992-05-13,36.14
1992-05-14,37.58
1992-05-15,35.96
1992-05-16,33.98
1992-05-17,40.46
1992-05-18,36.5
1992-05-19,32.54
1992-05-20,28.4
1992-05-21,25.52
1992-05-22,32.72
1992-05-23,40.82
1992-05-24,48.02
1992-05-25,44.6
1992-05-26,37.58
1992-05-27,28.94
1992-05-28,39.74
1992-05-29,35.6
1992-05-30,40.46
1992-05-31,42.98
1992-06-01,47.84
1992-06-02,41.18
1992-06-03,41.9
1992-06-04,41.36
1992-06-05,32.36
1992-06-06,40.82
1992-06-07,40.28
1992-06-08,40.64
1992-06-09,39.92
1992-06-10,36.5
1992-06-11,34.7
1992-06-12,29.12
1992-06-13,27.14
1992-06-14,29.12
1992-06-15,30.92
1992-06-16,32.9
1992-06-17,34.88
1992-06-18,39.02
1992-06-19,40.46
1992-06-20,45.32
1992-06-21,48.38
1992-06-22,53.06
1992-06-23,58.28
1992-06-24,48.02
1992-06-25,43.88
1992-06-26,47.48
1992-06-27,46.76
1992-06-28,32.0
1992-06-29,32.0
1992-06-30,34.16
1992-07-01,37.76
1992-07-02,37.76
1992-07-03,38.84
1992-07-04,37.94
1992-07-05,38.12
1992-07-06,37.94
1992-07-07,32.0
1992-07-08,39.02
1992-07-09,39.2
1992-07-10,42.44
1992-07-11,40.1
1992-07-12,39.38
1992-07-13,42.98
1992-07-14,44.24
1992-07-15,42.26
1992-07-16,47.3
1992-07-17,51.98
1992-07-18,49.28
1992-07-19,49.28
1992-07-20,42.62
1992-07-21,39.74
1992-07-22,35.6
1992-07-23,32.36
1992-07-24,36.14
1992-07-25,43.34
1992-07-26,49.82
1992-07-27,50.54
1992-07-28,51.08
1992-07-29,47.66
1992-07-30,53.06
1992-07-31,53.42
1992-08-01,51.44
1992-08-02,50.72
1992-08-03,48.92
1992-08-04,44.78
1992-08-05,42.08
1992-08-06,45.14
1992-08-07,42.26
1992-08-08,42.98
1992-08-09,41.72
1992-08-10,48.38
1992-08-11,53.42
1992-08-12,55.76
1992-08-13,54.68
1992-08-14,56.12
1992-08-15,50.36
1992-08-16,
1992-08-17,
1992-08-18,55.04
1992-08-19,52.34
1992-08-20,46.04
1992-08-21,34.16
1992-08-22,28.58
1992-08-23,28.22
1992-08-24,30.92
1992-08-25,36.32
1992-08-26,40.82
1992-08-27,48.2
1992-08-28,47.12
1992-08-29,44.6
1992-08-30,43.7
1992-08-31,39.56
1992-09-01,
1992-09-02,41.0
1992-09-03,38.3
1992-09-04,35.78
1992-09-05,32.0
1992-09-06,24.98
1992-09-07,29.66
1992-09-08,38.66
1992-09-09,38.48
1992-09-10,45.86
1992-09-11,42.08
1992-09-12,30.56
1992-09-13,26.96
1992-09-14,34.16
1992-09-15,37.22
1992-09-16,35.24
1992-09-17,39.92
1992-09-18,39.56
1992-09-19,42.08
1992-09-20,40.46
1992-09-21,44.78
1992-09-22,51.44
1992-09-23,42.62
1992-09-24,28.94
1992-09-25,27.86
1992-09-26,38.48
1992-09-27,37.04
1992-09-28,43.88
1992-09-29,50.36
1992-09-30,48.74
1992-10-01,40.64
1992-10-02,32.0
1992-10-03,30.38
1992-10-04,28.4
1992-10-05,30.38
1992-10-06,29.66
1992-10-07,32.72
1992-10-08,36.68
1992-10-09,34.34
1992-10-10,40.82
1992-10-11,50.18
1992-10-12,44.06
1992-10-13,28.76
1992-10-14,26.06
1992-10-15,37.58
1992-10-16,32.18
1992-10-17,30.56
1992-10-18,38.3
1992-10-19,32.72
1992-10-20,35.78
1992-10-21,30.02
1992-10-22,30.02
1992-10-23,36.86
1992-10-24,38.48
1992-10-25,37.04
1992-10-26,38.48
1992-10-27,37.04
1992-10-28,28.22
1992-10-29,29.3
1992-10-30,27.32
1992-10-31,27.32
1992-11-01,31.28
1992-11-02,23.72
1992-11-03,23.54
1992-11-04,28.94
1992-11-05,23.36
1992-11-06,37.22
1992-11-07,23.36
1992-11-08,18.68
1992-11-09,12.02
1992-11-10,8.78
1992-11-11,23.36
1992-11-12,30.02
1992-11-13,33.08
1992-11-14,33.44
1992-11-15,30.74
1992-11-16,26.6
1992-11-17,25.7
1992-11-18,19.94
1992-11-19,14.72
1992-11-20,11.3
1992-11-21,18.14
1992-11-22,17.78
1992-11-23,8.78
1992-11-24,7.52
1992-11-25,16.7
1992-11-26,24.62
1992-11-27,24.26
1992-11-28,13.82
1992-11-29,12.92
1992-11-30,27.32
1992-12-01,26.06
1992-12-02,16.16
1992-12-03,3.74
1992-12-04,7.34
1992-12-05,10.76
1992-12-06,19.58
1992-12-07,19.22
1992-12-08,19.4
1992-12-09,17.96
1992-12-10,16.52
1992-12-11,12.02
1992-12-12,16.7
1992-12-13,14.18
1992-12-14,15.08
1992-12-15,11.3
1992-12-16,8.24
1992-12-17,12.02
1992-12-18,6.98
1992-12-19,7.7
1992-12-20,18.14
1992-12-21,15.98
1992-12-22,15.98
1992-12-23,22.46
1992-12-24,17.42
1992-12-25,22.82
1992-12-26,23.36
1992-12-27,20.48
1992-12-28,17.78
1992-12-29,13.28
1992-12-30,9.5
1992-12-31,17.42
1993-01-01,7.52
1993-01-02,-1.3
1993-01-03,9.14
1993-01-04,11.66
1993-01-05,12.56
1993-01-06,9.32
1993-01-07,15.62
1993-01-08,10.22
1993-01-09,6.8
1993-01-10,5.9
1993-01-11,4.28
1993-01-12,7.34
1993-01-13,19.04
1993-01-14,18.68
1993-01-15,14.72
1993-01-16,11.3
1993-01-17,10.76
1993-01-18,15.62
1993-01-19,16.34
1993-01-20,23.18
1993-01-21,20.48
1993-01-22,2.84
1993-01-23,3.38
1993-01-24,23.18
1993-01-25,21.92
1993-01-26,24.62
1993-01-27,26.96
1993-01-28,20.12
1993-01-29,15.98
1993-01-30,15.08
1993-01-31,19.22
1993-02-01,20.12
1993-02-02,22.1
1993-02-03,26.06
1993-02-04,29.3
1993-02-05,28.94
1993-02-06,23.9
1993-02-07,21.92
1993-02-08,24.98
1993-02-09,22.64
1993-02-10,21.2
1993-02-11,19.94
1993-02-12,14.18
1993-02-13,12.92
1993-02-14,11.84
1993-02-15,-4.54
1993-02-16,-8.32
1993-02-17,5.36
1993-02-18,25.88
1993-02-19,17.6
1993-02-20,8.78
1993-02-21,10.22
1993-02-22,15.98
1993-02-23,13.1
1993-02-24,8.06
1993-02-25,2.48
1993-02-26,4.82
1993-02-27,4.82
1993-02-28,12.02
1993-03-01,18.32
1993-03-02,26.06
1993-03-03,20.84
1993-03-04,23.54
1993-03-05,26.42
1993-03-06,29.84
1993-03-07,28.58
1993-03-08,31.28
1993-03-09,29.84
1993-03-10,27.86
1993-03-11,23.72
1993-03-12,23.72
1993-03-13,28.58
1993-03-14,30.02
1993-03-15,29.66
1993-03-16,29.48
1993-03-17,31.1
1993-03-18,31.1
1993-03-19,28.58
1993-03-20,26.06
1993-03-21,25.52
1993-03-22,33.8
1993-03-23,29.12
1993-03-24,20.12
1993-03-25,20.48
1993-03-26,24.08
1993-03-27,26.42
1993-03-28,24.98
1993-03-29,24.44
1993-03-30,25.7
1993-03-31,27.32
1993-04-01,22.82
1993-04-02,22.82
1993-04-03,30.74
1993-04-04,20.48
1993-04-05,19.22
1993-04-06,17.6
1993-04-07,25.52
1993-04-08,25.88
1993-04-09,23.0
1993-04-10,17.78
1993-04-11,13.1
1993-04-12,12.02
1993-04-13,19.94
1993-04-14,20.12
1993-04-15,26.06
1993-04-16,23.72
1993-04-17,22.64
1993-04-18,19.76
1993-04-19,16.52
1993-04-20,27.86
1993-04-21,27.86
1993-04-22,23.54
1993-04-23,22.82
1993-04-24,26.06
1993-04-25,25.52
1993-04-26,19.04
1993-04-27,23.0
1993-04-28,27.68
1993-04-29,30.02
1993-04-30,26.6
1993-05-01,28.76
1993-05-02,34.16
1993-05-03,23.18
1993-05-04,20.48
1993-05-05,25.88
1993-05-06,24.98
1993-05-07,19.22
1993-05-08,22.64
1993-05-09,28.58
1993-05-10,42.08
1993-05-11,38.48
1993-05-12,30.2
1993-05-13,26.42
1993-05-14,32.72
1993-05-15,33.44
1993-05-16,39.74
1993-05-17,39.02
1993-05-18,42.44
1993-05-19,36.5
1993-05-20,36.86
1993-05-21,31.64
1993-05-22,28.4
1993-05-23,33.26
1993-05-24,36.14
1993-05-25,31.82
1993-05-26,32.36
1993-05-27,31.64
1993-05-28,31.28
1993-05-29,29.3
1993-05-30,38.66
1993-05-31,31.64
1993-06-01,31.1
1993-06-02,30.56
1993-06-03,28.04
1993-06-04,33.44
1993-06-05,30.56
1993-06-06,34.34
1993-06-07,29.84
1993-06-08,27.68
1993-06-09,34.52
1993-06-10,33.44
1993-06-11,26.24
1993-06-12,23.0
1993-06-13,35.78
1993-06-14,40.82
1993-06-15,34.34
1993-06-16,32.54
1993-06-17,38.48
1993-06-18,42.44
1993-06-19,50.0
1993-06-20,48.38
1993-06-21,30.02
1993-06-22,22.82
1993-06-23,22.82
1993-06-24,33.8
1993-06-25,43.16
1993-06-26,46.4
1993-06-27,37.4
1993-06-28,30.92
1993-06-29,31.1
1993-06-30,34.34
1993-07-01,38.12
1993-07-02,32.54
1993-07-03,28.22
1993-07-04,33.98
1993-07-05,32.54
1993-07-06,34.16
1993-07-07,37.04
1993-07-08,38.12
1993-07-09,41.54
1993-07-10,38.12
1993-07-11,37.4
1993-07-12,28.22
1993-07-13,33.44
1993-07-14,29.48
1993-07-15,31.1
1993-07-16,28.76
1993-07-17,30.92
1993-07-18,35.24
1993-07-19,36.14
1993-07-20,35.96
1993-07-21,31.82
1993-07-22,42.26
1993-07-23,40.46
1993-07-24,37.94
1993-07-25,
1993-07-26,37.04
1993-07-27,41.36
1993-07-28,44.96
1993-07-29,39.2
1993-07-30,37.22
1993-07-31,41.9
1993-08-01,48.92
1993-08-02,49.82
1993-08-03,
1993-08-04,57.2
1993-08-05,50.9
1993-08-06,49.46
1993-08-07,44.42
1993-08-08,40.46
1993-08-09,43.34
1993-08-10,42.08
1993-08-11,41.0
1993-08-12,
1993-08-13,40.82
1993-08-14,37.58
1993-08-15,34.34
1993-08-16,35.96
1993-08-17,35.42
1993-08-18,43.16
1993-08-19,44.96
1993-08-20,38.66
1993-08-21,40.46
1993-08-22,39.74
1993-08-23,35.42
1993-08-24,30.92
1993-08-25,28.04
1993-08-26,30.2
1993-08-27,40.46
1993-08-28,40.1
1993-08-29,34.16
1993-08-30,38.12
1993-08-31,41.9
1993-09-01,48.38
1993-09-02,44.96
1993-09-03,47.66
1993-09-04,48.38
1993-09-05,47.84
1993-09-06,48.2
1993-09-07,48.38
1993-09-08,49.1
1993-09-09,50.9
1993-09-10,53.24
1993-09-11,39.74
1993-09-12,28.04
1993-09-13,27.86
1993-09-14,37.58
1993-09-15,34.88
1993-09-16,36.68
1993-09-17,33.98
1993-09-18,32.18
1993-09-19,32.9
1993-09-20,24.62
1993-09-21,24.44
1993-09-22,26.96
1993-09-23,
1993-09-24,34.88
1993-09-25,38.66
1993-09-26,39.74
1993-09-27,48.56
1993-09-28,48.56
1993-09-29,47.12
1993-09-30,48.74
1993-10-01,
1993-10-02,42.98
1993-10-03,46.4
1993-10-04,42.26
1993-10-05,37.76
1993-10-06,35.24
1993-10-07,28.58
1993-10-08,28.04
1993-10-09,29.12
1993-10-10,37.22
1993-10-11,35.24
1993-10-12,
1993-10-13,33.08
1993-10-14,31.46
1993-10-15,31.64
1993-10-16,
1993-10-17,
1993-10-18,27.5
1993-10-19,
1993-10-20,31.46
1993-10-21,
1993-10-22,33.26
1993-10-23,35.42
1993-10-24,
1993-10-25,
1993-10-26,29.66
1993-10-27,36.32
1993-10-28,
1993-10-29,31.1
1993-10-30,30.38
1993-10-31,27.32
1993-11-01,22.1
1993-11-02,30.2
1993-11-03,25.52
1993-11-04,
1993-11-05,20.12
1993-11-06,26.78
1993-11-07,24.98
1993-11-08,24.8
1993-11-09,30.56
1993-11-10,27.32
1993-11-11,22.64
1993-11-12,19.4
1993-11-13,15.8
1993-11-14,14.54
1993-11-15,23.72
1993-11-16,24.44
1993-11-17,23.18
1993-11-18,
1993-11-19,
1993-11-20,26.42
1993-11-21,24.98
1993-11-22,10.94
1993-11-23,
1993-11-24,-2.56
1993-11-25,10.22
1993-11-26,23.36
1993-11-27,32.0
1993-11-28,28.58
1993-11-29,24.44
1993-11-30,16.52
1993-12-01,19.22
1993-12-02,17.06
1993-12-03,
1993-12-04,13.28
1993-12-05,14.36
1993-12-06,16.34
1993-12-07,24.62
1993-12-08,23.0
1993-12-09,21.38
1993-12-10,31.1
1993-12-11,
1993-12-12,14.18
1993-12-13,17.96
1993-12-14,
1993-12-15,
1993-12-16,9.5
1993-12-17,
1993-12-18,10.04
1993-12-19,13.46
1993-12-20,18.68
1993-12-21,19.76
1993-12-22,21.02
1993-12-23,18.14
1993-12-24,26.24
1993-12-25,
1993-12-26,22.82
1993-12-27,18.68
1993-12-28,20.3
1993-12-29,27.5
1993-12-30,24.44
1993-12-31,25.16
1994-01-01,25.7
1994-01-02,
1994-01-03,31.46
1994-01-04,
1994-01-05,8.06
1994-01-06,15.44
1994-01-07,25.88
1994-01-08,12.2
1994-01-09,8.24
1994-01-10,14.72
1994-01-11,16.52
1994-01-12,28.94
1994-01-13,29.12
1994-01-14,31.1
1994-01-15,27.32
1994-01-16,
1994-01-17,
1994-01-18,32.9
1994-01-19,32.54
1994-01-20,30.74
1994-01-21,32.36
1994-01-22,31.1
1994-01-23,23.72
1994-01-24,13.46
1994-01-25,
1994-01-26,16.52
1994-01-27,15.62
1994-01-28,13.64
1994-01-29,15.62
1994-01-30,7.7
1994-01-31,6.98
1994-02-01,12.92
1994-02-02,13.46
1994-02-03,16.16
1994-02-04,13.64
1994-02-05,
1994-02-06,17.78
1994-02-07,6.26
1994-02-08,-1.12
1994-02-09,15.26
1994-02-10,12.02
1994-02-11,8.96
1994-02-12,8.42
1994-02-13,
1994-02-14,22.1
1994-02-15,20.3
1994-02-16,28.22
1994-02-17,16.88
1994-02-18,14.0
1994-02-19,11.84
1994-02-20,15.8
1994-02-21,12.92
1994-02-22,11.12
1994-02-23,19.94
1994-02-24,25.34
1994-02-25,23.0
1994-02-26,26.6
1994-02-27,24.8
1994-02-28,
1994-03-01,32.36
1994-03-02,32.36
1994-03-03,
1994-03-04,27.68
1994-03-05,18.32
1994-03-06,
1994-03-07,22.64
1994-03-08,25.16
1994-03-09,30.02
1994-03-10,21.2
1994-03-11,17.78
1994-03-12,18.86
1994-03-13,35.24
1994-03-14,37.22
1994-03-15,29.48
1994-03-16,20.12
1994-03-17,17.06
1994-03-18,13.28
1994-03-19,6.26
1994-03-20,14.18
1994-03-21,15.8
1994-03-22,9.68
1994-03-23,5.18
1994-03-24,15.62
1994-03-25,17.42
1994-03-26,24.26
1994-03-27,28.22
1994-03-28,31.28
1994-03-29,28.94
1994-03-30,24.98
1994-03-31,23.9
1994-04-01,26.78
1994-04-02,30.02
1994-04-03,21.02
1994-04-04,13.46
1994-04-05,21.74
1994-04-06,20.3
1994-04-07,16.88
1994-04-08,22.28
1994-04-09,21.92
1994-04-10,21.92
1994-04-11,23.54
1994-04-12,27.32
1994-04-13,26.42
1994-04-14,
1994-04-15,29.84
1994-04-16,39.02
1994-04-17,39.92
1994-04-18,36.86
1994-04-19,37.4
1994-04-20,33.8
1994-04-21,
1994-04-22,26.06
1994-04-23,25.34
1994-04-24,23.9
1994-04-25,21.02
1994-04-26,25.52
1994-04-27,25.88
1994-04-28,28.22
1994-04-29,27.32
1994-04-30,26.42
1994-05-01,24.62
1994-05-02,25.88
1994-05-03,31.1
1994-05-04,33.8
1994-05-05,34.7
1994-05-06,34.7
1994-05-07,37.22
1994-05-08,36.68
1994-05-09,42.98
1994-05-10,43.16
1994-05-11,40.28
1994-05-12,31.1
1994-05-13,26.96
1994-05-14,33.08
1994-05-15,26.96
1994-05-16,24.62
1994-05-17,24.08
1994-05-18,27.86
1994-05-19,30.74
1994-05-20,31.46
1994-05-21,29.3
1994-05-22,28.76
1994-05-23,35.96
1994-05-24,41.54
1994-05-25,37.04
1994-05-26,37.22
1994-05-27,32.18
1994-05-28,34.52
1994-05-29,33.98
1994-05-30,32.0
1994-05-31,35.42
1994-06-01,33.08
1994-06-02,36.14
1994-06-03,36.32
1994-06-04,33.26
1994-06-05,29.66
1994-06-06,26.06
1994-06-07,25.88
1994-06-08,25.52
1994-06-09,35.24
1994-06-10,41.72
1994-06-11,46.58
1994-06-12,41.18
1994-06-13,25.88
1994-06-14,23.72
1994-06-15,24.44
1994-06-16,28.04
1994-06-17,32.72
1994-06-18,28.76
1994-06-19,37.58
1994-06-20,43.34
1994-06-21,43.88
1994-06-22,44.24
1994-06-23,39.38
1994-06-24,38.48
1994-06-25,33.44
1994-06-26,29.12
1994-06-27,38.84
1994-06-28,48.74
1994-06-29,47.84
1994-06-30,46.76
1994-07-01,43.7
1994-07-02,40.28
1994-07-03,34.7
1994-07-04,38.12
1994-07-05,31.46
1994-07-06,35.6
1994-07-07,44.6
1994-07-08,51.08
1994-07-09,51.62
1994-07-10,43.52
1994-07-11,46.04
1994-07-12,48.38
1994-07-13,47.66
1994-07-14,50.18
1994-07-15,47.48
1994-07-16,52.16
1994-07-17,49.1
1994-07-18,49.1
1994-07-19,49.64
1994-07-20,54.68
1994-07-21,57.02
1994-07-22,50.72
1994-07-23,48.38
1994-07-24,51.44
1994-07-25,44.96
1994-07-26,47.48
1994-07-27,52.34
1994-07-28,54.86
1994-07-29,53.96
1994-07-30,51.44
1994-07-31,51.08
1994-08-01,48.56
1994-08-02,49.82
1994-08-03,47.48
1994-08-04,47.66
1994-08-05,44.96
1994-08-06,43.7
1994-08-07,43.7
1994-08-08,37.58
1994-08-09,39.74
1994-08-10,40.28
1994-08-11,41.72
1994-08-12,44.6
1994-08-13,46.04
1994-08-14,49.64
1994-08-15,45.68
1994-08-16,42.44
1994-08-17,43.7
1994-08-18,46.4
1994-08-19,43.16
1994-08-20,44.06
1994-08-21,38.66
1994-08-22,32.36
1994-08-23,44.6
1994-08-24,44.24
1994-08-25,43.52
1994-08-26,42.44
1994-08-27,42.98
1994-08-28,41.54
1994-08-29,37.76
1994-08-30,41.9
1994-08-31,44.24
1994-09-01,42.08
1994-09-02,40.28
1994-09-03,36.68
1994-09-04,32.54
1994-09-05,42.26
1994-09-06,48.38
1994-09-07,43.16
1994-09-08,40.1
1994-09-09,32.9
1994-09-10,29.84
1994-09-11,30.92